Location: Wells
(51.2093°N, 2.6446°W)
Time: 22:15:00
(UTC+01:00)

CUTE-I - Pass Details

Date: 13 March 2026
Orbit: 804 x 818 km, 98.7° (Epoch: 11 April)

Event Time Altitude Azimuth Distance (km) Brightness Sun altitude
Rises 05:41:40 0° 23° (NNE) 3,330 ? -8.3°
Reaches altitude 10° 05:44:23 10° 36° (NE) 2,394 ? -7.9°
Maximum altitude 05:48:49 27° 93° (E) 1,517 ? -7.2°
Drops below altitude 10° 05:53:14 10° 150° (SSE) 2,382 ? -6.5°
Sets 05:55:54 0° 162° (SSE) 3,309 ? -6.1°
